Regional Weather Roundup
Issued by NWS

Home | Current Version | Previous Version | Text Only | Print | Product List | Glossary Off
Versions: 1 2 3 4 5 6 7 8 9 10 11 12 13 14 15 16 17 18 19 20 21 22 23 24 25 26 27 28

000
ASUS45 KTFX 220010
RWRMT
MONTANA REGIONAL WEATHER ROUNDUP
NATIONAL WEATHER SERVICE GREAT FALLS MT
600 PM MDT MON AUG 21 2017

NOTE: "FAIR" INDICATES FEW OR NO CLOUDS BELOW 12000 FEET WITH NO
SIGNIFICANT WEATHER AND/OR OBSTRUCTIONS TO VISIBILITY.

MTZ001>007-043-220100-
WEST OF THE DIVIDE

CITY           SKY/WX    TMP DP  RH WIND       PRES   REMARKS
KALISPELL      MOSUNNY   79  43  27 S8        30.12F
MISSOULA       SUNNY     84  34  16 VRB7      30.11F
BUTTE          SUNNY     77  29  17 CALM      30.23S
MULLAN PASS    SUNNY     71  34  25 NW6       30.29S
ANACONDA         N/A     75  43  31 N7        30.19F
DEER LODGE       N/A     77  36  22 CALM      30.21S
EUREKA           N/A     81  37  21 MISG      30.10F
HAMILTON         N/A     79  41  25 N6        30.13F
LIBBY            N/A     84  37  18 NW3       30.08F
PLAINS           N/A     86  42  21 CALM      30.09
RONAN            N/A     82  39  21 W1        30.18F
$$

MTZ008-052>055-220100-
SOUTHWEST MONTANA

CITY           SKY/WX    TMP DP  RH WIND       PRES   REMARKS
BOZEMAN        SUNNY     79  35  20 W7        30.17F
DILLON         MOSUNNY   77  43  29 N7        30.18F HAZE
W YELLOWSTONE  SUNNY     75  28  17 NW7       30.28S
ENNIS          SUNNY     79  23  12 NW8       30.25S
THREE FORKS      N/A     80  32  17 NE3       30.14F
TWIN BRIDGES     N/A     79  38  22 CALM      30.15
$$

MTZ009-010-012-014-046-048-049-054-220100-
EAST SLOPES AND CENTRAL MONTANA

CITY           SKY/WX    TMP DP  RH WIND       PRES   REMARKS
CUT BANK       MOSUNNY   74  34  23 E3        30.16S
GREAT FALLS    SUNNY     78  33  19 E7        30.15F
MALMSTROM AFB  SUNNY     76  34  21 SW3       30.15F
HELENA         SUNNY     83  36  18 NE8       30.12F
CHOTEAU          N/A     79  36  21 E6        30.17S
FAIRFIELD        N/A     77  35  21 SE9       30.14F
$$

MTZ011-013-016-021-045-047-050-051-220100-
NORTH CENTRAL MONTANA

CITY           SKY/WX    TMP DP  RH WIND       PRES   REMARKS
HAVRE          MOSUNNY   77  35  21 CALM      30.13S
LEWISTOWN      SUNNY     75  34  22 NW6       30.19R
N BAR RANCH      N/A     73  30  20 E9        30.22S
CHINOOK          N/A     75  37  25 CALM      30.13F
$$

MTZ017>020-022>027-061-062-220100-
NORTHEAST MONTANA

CITY           SKY/WX    TMP DP  RH WIND       PRES   REMARKS
GLASGOW        SUNNY     76  34  21 NW12      30.13S
JORDAN           N/A     77  33  20 NE6       30.15S
SIDNEY         MOSUNNY   76  36  23 NW14      30.11S
WOLF POINT     SUNNY     79  34  19 N17       30.12R
MALTA          SUNNY     77  36  22 N7        30.13F
PLENTYWOOD       N/A     72  30  21 NW14G21   30.11S
SCOBEY           N/A     72  31  22 NW7       30.12
$$

MTZ028>42-056>058-220100-
SOUTHCENTRAL AND SOUTHEAST MONTANA

CITY           SKY/WX    TMP DP  RH WIND       PRES   REMARKS
BAKER          SUNNY     76  34  21 NW9       30.15S
BILLINGS       MOSUNNY   79  30  16 NE6       30.15S
LIVINGSTON     SUNNY     81  32  17 CALM      30.17S
MILES CITY     SUNNY     80  31  16 MISG      30.13S
BIG TIMBER     SUNNY     79  32  18 E7        30.19S
LAUREL           N/A     80  34  19 NE6       30.13F
$$

REGIONAL REPORTS...DAKOTAS

CITY           SKY/WX    TMP DP  RH WIND       PRES   REMARKS
WILLISTON      SUNNY     75  35  23 N15       30.10S
MINOT          MOSUNNY   73  39  29 NW13G26   30.04R
DICKINSON      SUNNY     73  38  27 N16G26    30.10R
BEACH            N/A     73  34  23 N15G21    30.17R
CROSBY           N/A     72  32  23 NW15G21   30.10R
TIOGA            N/A     70  34  26 NW16      30.11S
WATFORD CITY     N/A     73  36  25 N17G23    30.10R
BISMARCK       SUNNY     75  39  27 NW13G26   30.05R
GRAND FORKS    MOSUNNY   72  57  59 NW7       29.88S
FARGO          SUNNY     73  59  61 NW15      29.89R
BUFFALO SD       N/A     77  37  23 N16       30.08R
RAPID CITY     SUNNY     78  38  23 N17       30.14R
$$

REGIONAL REPORTS...WYOMING/IDAHO/WASHINGTON

CITY           SKY/WX    TMP DP  RH WIND       PRES   REMARKS
GILLETTE       SUNNY     77  32  19 NE9G17    30.20R
SHERIDAN       SUNNY     81  32  17 VRB5      30.17S
BUFFALO WY     SUNNY     78  30  17 NE7       30.23S
CODY           SUNNY     73  35  25 N12       30.22R
YELLOWSTONE LA   N/A     68  42  38 CALM      30.37S
IDAHO FALLS    SUNNY     82  33  17 S7        30.17S
SALMON         SUNNY     80  51  36 SW5       30.11F
BOISE          SUNNY     88  38  17 W9        30.05F
SPOKANE        MOSUNNY   85  39  19 CALM      30.10F
$$

REGIONAL REPORTS...ALBERTA

CITY           SKY/WX    TMP DP  RH WIND       PRES   REMARKS
EDMONTON       PTSUNNY   68  50  52 W5        30.07S
CALGARY        CLOUDY    72  41  33 SE9       30.13S
LETHBRIDGE     PTSUNNY   75  39  27 E5        30.11F
MEDICINE HAT   PTSUNNY   73  37  27 VRB2      30.12F
$$

REGIONAL REPORTS...SASKATCHEWAN

CITY           SKY/WX    TMP DP  RH WIND       PRES   REMARKS
SWIFT CURRENT  SUNNY     70  30  23 N9        30.15S
REGINA         MOSUNNY   70  34  26 NW13G22   30.10R
SASKATOON      PTSUNNY   70  39  32 NW15G21   30.10S
$$




USA.gov is the U.S. government's official web portal to all federal, state and local government web resources and services.